Regional Weather Roundup
Issued by NWS Jackson, KY

Home | Current Version | Previous Version | Graphics & Text | Print | Product List | Glossary On
Versions: 1 2 3 4 5 6 7 8 9 10 11 12 13 14 15 16 17 18 19 20 21 22 23 24 25 26 27 28
000
ASUS43 KJKL 010410
RWRJKL

EAST KENTUCKY HOURLY WEATHER ROUNDUP
NATIONAL WEATHER SERVICE JACKSON KY
1200 AM EDT WED JUN 01 2016

NOTE: "FAIR" INDICATES FEW OR NO CLOUDS BELOW 12,000 FEET WITH
NO SIGNIFICANT WEATHER AND/OR OBSTRUCTIONS TO VISIBILITY.

* THESE REPORTS ARE NOT UNDER NWS QUALITY CONTROL AND MAY NOT
  REPORT WEATHER SUCH AS PRECIPITATION AND FOG.

KYZ079-080-083-085-087-088-110-112-115-119-120-010500
...EASTERN KENTUCKY...

CITY           SKY/WX    TMP DP  RH WIND       PRES   REMARKS
JACKSON        CLEAR     72  56  57 CALM      30.01R
LONDON         CLEAR     69  61  75 CALM      29.99S
SOMERSET*      CLEAR     66  64  94 CALM      30.00S
MONTICELLO*    CLEAR     65  63  93 W9        30.00S
WILLIAMSBURG*  CLEAR     61  61 100 CALM      30.00S
MIDDLESBORO*   CLEAR     67  64  90 CALM      30.01S
HARLAN APT*      N/A     64  63  94 CALM      30.03S
HAZARD APT*    CLEAR     66  64  94 CALM      30.00S
BLACK MTN*       N/A     64  59  82 SE3         N/A
PIKE CO APT*     N/A     74  58  56 S5        30.02R
BIG SANDY APT* PTCLDY    67  61  81 CALM      30.01R
MOREHEAD APT*  MOCLDY    70  59  68 CALM      30.02S
ASHLAND*       MOCLDY    66  63  88 CALM      29.96F
$$

KYZ035-036-041-042-044-050-067-078-099-010500
...CENTRAL KENTUCKY...

CITY           SKY/WX    TMP DP  RH WIND       PRES   REMARKS
MT STERLING*   CLEAR     64  63  94 CALM      30.01S
FLEMING/MASON* CLEAR    N/A N/A N/A CALM      30.01S
DANVILLE*      PTCLDY    64  63  94 CALM      30.00F
RICHMOND*      CLEAR     68  64  88 CALM      29.99S
LEXINGTON      CLEAR     67  60  78 CALM      29.99S
FRANKFORT      CLEAR     66  59  78 CALM      29.98R
LOUISVILLE     PTCLDY    75  59  57 CALM      29.96S
LEBANON*         N/A     68  64  88 CALM      29.99R
GLASGOW*       CLEAR     69  65  86 CALM      29.97F
BOWLING GREEN  CLEAR     72  65  78 CALM      29.96S
$$

KYZ091>093-OHZ055-061-077-WVZ005-015-034-035-042-010500
...SOUTHERN OHIO/WEST VIRGINIA...

CITY           SKY/WX    TMP DP  RH WIND       PRES   REMARKS
COVINGTON      CLEAR     68  61  78 CALM      29.99R
COLUMBUS       MOCLDY    72  56  57 E7        30.00S
DAYTON         PTCLDY    72  56  57 E10       30.02R
WILMINGTON     PTCLDY    69  62  78 NE5       30.00R
HUNTINGTON       N/A     67  58  72 CALM      29.98R
CHARLESTON       N/A     66  60  81 CALM      29.99F
PINEVILLE*       N/A     65  60  82 MISG      30.09F
BECKLEY          N/A     67  59  75 S6        30.08S
BLUEFIELD        N/A     63  58  83 SE3       30.11F
LOGAN CO APT*    N/A     75  55  50 CALM      30.02S
$$

VAZ002-007-008-TNZ017-027-036-066-071-010500
...SOUTHWEST VIRGINIA/EAST TENNESSEE...

CITY           SKY/WX    TMP DP  RH WIND       PRES   REMARKS
WISE*          MOCLDY    68  55  64 CALM      30.09S
JONESVILLE*      N/A     66  63  88 CALM      30.03S
ABINGDON*        N/A     68  62  82 E5        30.06S
BRISTOL        PTCLDY    66  61  84 CALM      30.02S
SEVIERVILLE*   CLEAR     66  63  88 CALM      29.97R
KNOXVILLE      PTCLDY    73  64  73 CALM      29.97R
OAK RIDGE      CLEAR     72  63  73 CALM      29.98R
CROSSVILLE     CLEAR     67  63  87 CALM      30.03S
NASHVILLE      PTCLDY    76  61  59 CALM      29.96S
$$

...KEY TO REMARKS...
VSB - VISIBILITY IN MILES
WCI - WIND CHILL INDEX
HX  - HEAT INDEX

$$




USA.gov is the U.S. government's official web portal to all federal, state and local government web resources and services.